Tracking 19796 objects as of 19-Jul-2019
HD Live streaming from Space Station
objects crossing your sky now

SL-8 R/B

Track SL-8 R/B now!
10-day predictions


NORAD ID: 16953
Int'l Code: 1986-070B
Perigee: 765.4 km
Apogee: 783.4 km
Inclination: 74.0 °
Period: 100.2 minutes
Semi major axis: 7145 km
RCS: 6.5779 m2 (large)
Launch date: September 10, 1986
Source: Commonwealth of Independent States (former USSR) (CIS)
Launch site: PLESETSK MISSILE AND SPACE COMPLEX (PKMTR)

Note: This is a ROCKET BODY
aabbcc
Your satellite tracking list
Your tracking list is empty




NASA's NSSDC Master Catalog

Two Line Element Set (TLE):
1 16953U 86070B   19199.44519261 +.00000029 +00000-0 +18704-4 0  9991
2 16953 074.0134 313.5646 0012576 347.9426 012.1424 14.37359557721215
Source of the keplerian elements: AFSPC